Location: Berg
(47.2344°N, 9.5296°E)
Time: 21:41:42
(UTC+00:00)

Nauka - Pass Details

Date: 22 September 2021
Orbit: 417 x 423 km, 51.6° (Epoch: 16 October)

Event Time Altitude Azimuth Distance (km) Brightness Sun altitude
Rises 18:49:19 0° 266° (W) 2,360 ? -15.8°
Reaches altitude 10° 18:51:28 10° 273° (W) 1,498 ? -16.2°
Maximum altitude 18:54:42 45° 348° (NNW) 586 ? -16.7°
Enters shadow 18:56:16 25° 47° (NE) 886 ? -17.0°
